This is the latest recevied weather packets stored in our database for station/object N4BBA. If no packets are shown the sender has not sent any weather packets the latest 1 day(s).
| Time | Temp. | Humidity | Pressure | Rain* | Wind** | Luminosity | Snow |
|---|---|---|---|---|---|---|---|
| 1778014669 | 26.11° C | 46% | 1014.2 hPa | 0 mm | 2.68 m/s, 193° | 468 W/m² | - |
| 1778014367 | 26.67° C | 46% | 1014.3 hPa | 0 mm | 2.68 m/s, 179° | 186 W/m² | - |
| 1778014063 | 26.67° C | 46% | 1014.1 hPa | 0 mm | 2.24 m/s, 230° | 524 W/m² | - |
| 1778013761 | 26.67° C | 46% | 1014.1 hPa | 0 mm | 3.13 m/s, 230° | 557 W/m² | - |
| 1778013458 | 26.67° C | 46% | 1014.1 hPa | 0 mm | 1.79 m/s, 195° | 566 W/m² | - |
| 1778013155 | 26.11° C | 47% | 1014.1 hPa | 0 mm | 3.58 m/s, 186° | 531 W/m² | - |
| 1778012851 | 26.11° C | 47% | 1014.1 hPa | 0 mm | 1.34 m/s, 182° | 375 W/m² | - |
| 1778012547 | 26.67° C | 46% | 1014.1 hPa | 0 mm | 3.58 m/s, 193° | 356 W/m² | - |
| 1778012244 | 26.11° C | 47% | 1014.2 hPa | 0 mm | 2.24 m/s, 186° | 189 W/m² | - |
| 1778011942 | 25.56° C | 48% | 1014.3 hPa | 0 mm | 2.68 m/s, 172° | 241 W/m² | - |
| 1778011639 | 26.11° C | 46% | 1014.2 hPa | 0 mm | 3.13 m/s, 183° | 226 W/m² | - |
| 1778011336 | 27.22° C | 46% | 1014.5 hPa | 0 mm | 1.79 m/s, 137° | 634 W/m² | - |
| 1778011032 | 26.67° C | 46% | 1014.4 hPa | 0 mm | 1.79 m/s, 146° | 610 W/m² | - |
| 1778010729 | 26.11° C | 47% | 1014.6 hPa | 0 mm | 2.24 m/s, 174° | 373 W/m² | - |
| 1778010427 | 26.67° C | 46% | 1014.6 hPa | 0 mm | 1.34 m/s, 184° | 469 W/m² | - |
| 1778010123 | 26.67° C | 46% | 1014.9 hPa | 0 mm | 0.89 m/s, 178° | 433 W/m² | - |
| 1778009819 | 26.67° C | 46% | 1014.7 hPa | 0 mm | 1.79 m/s, 229° | 529 W/m² | - |
| 1778009516 | 27.22° C | 45% | 1014.8 hPa | 0 mm | 1.79 m/s, 196° | 739 W/m² | - |
| 1778009215 | 26.67° C | 45% | 1014.9 hPa | 0 mm | 2.68 m/s, 185° | 834 W/m² | - |
| 1778008912 | 26.11° C | 46% | 1015.1 hPa | 0 mm | 2.24 m/s, 183° | 755 W/m² | - |
| 1778008610 | 26.11° C | 45% | 1015.1 hPa | 0 mm | 0.89 m/s, 111° | 432 W/m² | - |
| 1778008308 | 26.67° C | 45% | 1015.4 hPa | 0 mm | 1.79 m/s, 224° | 439 W/m² | - |
| 1778008004 | 26.67° C | 45% | 1015.4 hPa | 0 mm | 1.34 m/s, 152° | 682 W/m² | - |
| 1778007704 | 26.67° C | 45% | 1015.4 hPa | 0 mm | 2.68 m/s, 214° | 689 W/m² | - |
| 1778007401 | 26.67° C | 45% | 1015.4 hPa | 0 mm | 2.68 m/s, 192° | 743 W/m² | - |
* Rain latest hour (hover to see other rain measurements)
** Current wind speed in m/s (hover to see current wind gust speed)